Time,TemperatureF,DewpointF,PressureIn,WindDirection,WindDirectionDegrees,WindSpeedMPH,WindSpeedGustMPH,Humidity,HourlyPrecipIn,Conditions,Clouds,dailyrainin,SoftwareType,DateUTC
2013-02-26 00:00:00,26.6,16.2,30.18,SSE,158,12.0,15.0,64,-99.99,,,0.21,meteohub,2013-02-26 05:00:00,
2013-02-26 00:05:00,26.6,16.2,30.18,SSE,158,10.0,13.0,64,-99.99,,,0.21,meteohub,2013-02-26 05:05:00,
2013-02-26 00:10:00,26.6,16.5,30.18,ESE,112,9.0,13.0,65,-99.99,,,0.21,meteohub,2013-02-26 05:10:00,
2013-02-26 00:15:00,26.6,16.5,30.18,SSE,158,9.0,13.0,65,-99.99,,,0.21,meteohub,2013-02-26 05:15:00,
2013-02-26 00:20:00,26.4,16.3,30.18,SSE,158,8.0,13.0,65,-99.99,,,0.21,meteohub,2013-02-26 05:20:00,
2013-02-26 00:26:00,26.4,16.3,30.18,SSE,158,6.0,13.0,65,-99.99,,,0.21,meteohub,2013-02-26 05:26:00,
2013-02-26 00:31:00,26.4,16.0,30.18,SSE,158,9.0,13.0,64,-99.99,,,0.21,meteohub,2013-02-26 05:31:00,
2013-02-26 00:36:00,26.4,16.3,30.18,South,180,9.0,13.0,65,-99.99,,,0.21,meteohub,2013-02-26 05:36:00,
2013-02-26 00:41:00,26.4,16.3,30.18,SSE,158,9.0,13.0,65,-99.99,,,0.21,meteohub,2013-02-26 05:41:00,
2013-02-26 00:46:00,26.4,16.0,30.15,SSE,158,9.0,13.0,64,-99.99,,,0.21,meteohub,2013-02-26 05:46:00,
2013-02-26 00:51:00,26.2,15.8,30.15,SSE,158,9.0,13.0,64,-99.99,,,0.21,meteohub,2013-02-26 05:51:00,
2013-02-26 00:56:00,26.2,16.2,30.15,SSE,158,11.0,13.0,65,-99.99,,,0.21,meteohub,2013-02-26 05:56:00,
2013-02-26 01:01:00,26.1,16.0,30.15,SSE,158,9.0,13.0,65,-99.99,,,0.21,meteohub,2013-02-26 06:01:00,
2013-02-26 01:06:00,26.1,16.3,30.15,SSE,158,13.0,15.0,66,-99.99,,,0.21,meteohub,2013-02-26 06:06:00,
2013-02-26 01:11:00,25.9,16.2,30.15,SSE,158,7.0,15.0,66,-99.99,,,0.21,meteohub,2013-02-26 06:11:00,
2013-02-26 01:16:00,25.9,16.9,30.15,SSE,158,9.0,13.0,68,-99.99,,,0.21,meteohub,2013-02-26 06:16:00,
2013-02-26 01:21:00,25.7,17.2,30.16,SSE,158,7.0,13.0,70,-99.99,,,0.21,meteohub,2013-02-26 06:21:00,
2013-02-26 01:26:00,25.5,17.8,30.16,SSE,158,10.0,12.0,72,-99.99,,,0.21,meteohub,2013-02-26 06:26:00,
2013-02-26 01:31:00,25.5,18.3,30.16,SSE,158,10.0,10.0,74,-99.99,,,0.21,meteohub,2013-02-26 06:31:00,
2013-02-26 01:36:00,25.3,19.2,30.16,SSE,158,12.0,12.0,77,-99.99,,,0.21,meteohub,2013-02-26 06:36:00,
2013-02-26 01:41:00,25.2,19.6,30.16,SSE,158,12.0,13.0,79,-99.99,,,0.21,meteohub,2013-02-26 06:41:00,
2013-02-26 01:46:00,25.0,19.9,30.16,South,180,9.0,16.0,81,-99.99,,,0.21,meteohub,2013-02-26 06:46:00,
2013-02-26 01:51:00,25.2,21.0,30.16,ESE,112,11.0,16.0,84,-99.99,,,0.21,meteohub,2013-02-26 06:51:00,
2013-02-26 01:56:00,25.3,22.1,30.16,SSE,158,8.0,17.0,87,-99.99,,,0.21,meteohub,2013-02-26 06:56:00,
2013-02-26 02:01:00,25.3,22.6,30.16,SE,135,11.0,17.0,89,-99.99,,,0.21,meteohub,2013-02-26 07:01:00,
2013-02-26 02:06:00,25.2,22.6,30.16,SSE,158,11.0,14.0,90,-99.99,,,0.21,meteohub,2013-02-26 07:06:00,
2013-02-26 02:11:00,25.0,22.5,30.16,SSE,158,10.0,14.0,90,-99.99,,,0.21,meteohub,2013-02-26 07:11:00,
2013-02-26 02:16:00,24.6,22.5,30.17,SSE,158,9.0,13.0,91,-99.99,,,0.21,meteohub,2013-02-26 07:16:00,
2013-02-26 02:22:00,24.8,22.6,30.17,SSE,158,8.0,11.0,91,-99.99,,,0.21,meteohub,2013-02-26 07:22:00,
2013-02-26 02:27:00,24.8,22.6,30.17,SSE,158,6.0,11.0,91,-99.99,,,0.21,meteohub,2013-02-26 07:27:00,
2013-02-26 02:32:00,24.6,22.5,30.13,SSE,158,5.0,11.0,91,-99.99,,,0.21,meteohub,2013-02-26 07:32:00,
2013-02-26 02:37:00,24.4,22.3,30.13,SSE,158,6.0,10.0,91,-99.99,,,0.21,meteohub,2013-02-26 07:37:00,
2013-02-26 02:42:00,24.4,22.3,30.13,SSE,158,6.0,10.0,91,-99.99,,,0.21,meteohub,2013-02-26 07:42:00,
2013-02-26 02:47:00,24.4,22.3,30.13,SSW,202,6.0,9.0,91,-99.99,,,0.21,meteohub,2013-02-26 07:47:00,
2013-02-26 02:52:00,24.8,22.6,30.13,SSE,158,5.0,9.0,91,-99.99,,,0.21,meteohub,2013-02-26 07:52:00,
2013-02-26 02:57:00,25.0,22.8,30.13,SSE,158,5.0,9.0,91,-99.99,,,0.21,meteohub,2013-02-26 07:57:00,
2013-02-26 03:02:00,25.2,23.2,30.09,SSE,158,4.0,6.0,92,-99.99,,,0.21,meteohub,2013-02-26 08:02:00,
2013-02-26 03:07:00,25.3,23.4,30.09,SSE,158,4.0,7.0,92,-99.99,,,0.21,meteohub,2013-02-26 08:07:00,
2013-02-26 03:12:00,25.3,23.4,30.09,SSE,158,1.0,7.0,92,-99.99,,,0.21,meteohub,2013-02-26 08:12:00,
2013-02-26 03:17:00,25.5,23.5,30.09,SSE,158,3.0,7.0,92,-99.99,,,0.21,meteohub,2013-02-26 08:17:00,
2013-02-26 03:22:00,25.7,23.7,30.09,SSE,158,3.0,6.0,92,-99.99,,,0.21,meteohub,2013-02-26 08:22:00,
2013-02-26 03:27:00,25.9,23.5,30.09,SSE,158,3.0,6.0,91,-99.99,,,0.21,meteohub,2013-02-26 08:27:00,
2013-02-26 03:32:00,25.7,23.4,30.09,SSE,158,5.0,5.0,91,-99.99,,,0.21,meteohub,2013-02-26 08:32:00,
2013-02-26 03:37:00,25.9,23.5,30.09,SSE,158,5.0,6.0,91,-99.99,,,0.21,meteohub,2013-02-26 08:37:00,
2013-02-26 03:42:00,25.9,23.9,30.09,SSE,158,7.0,8.0,92,-99.99,,,0.21,meteohub,2013-02-26 08:42:00,
2013-02-26 03:47:00,25.9,24.1,30.09,SSE,158,3.0,8.0,93,-99.99,,,0.21,meteohub,2013-02-26 08:47:00,
2013-02-26 03:52:00,25.7,24.3,30.09,SSE,158,8.0,8.0,94,-99.99,,,0.21,meteohub,2013-02-26 08:52:00,
2013-02-26 03:57:00,25.7,24.3,30.09,SSE,158,3.0,8.0,94,-99.99,,,0.21,meteohub,2013-02-26 08:57:00,
2013-02-26 04:02:00,25.9,24.6,30.09,SSE,158,6.0,8.0,95,-99.99,,,0.21,meteohub,2013-02-26 09:02:00,
2013-02-26 04:07:00,25.9,25.0,30.09,SSE,158,3.0,8.0,96,-99.99,,,0.21,meteohub,2013-02-26 09:07:00,
2013-02-26 04:12:00,26.1,25.2,30.09,SSE,158,6.0,6.0,96,-99.99,,,0.21,meteohub,2013-02-26 09:12:00,
2013-02-26 04:17:00,26.1,25.3,30.09,SSE,158,6.0,6.0,97,-99.99,,,0.21,meteohub,2013-02-26 09:17:00,
2013-02-26 04:22:00,26.2,25.5,30.08,SSE,158,4.0,6.0,97,-99.99,,,0.21,meteohub,2013-02-26 09:22:00,
2013-02-26 04:27:00,26.2,25.5,30.08,SSE,158,2.0,6.0,97,-99.99,,,0.21,meteohub,2013-02-26 09:27:00,
2013-02-26 04:32:00,26.2,25.7,30.08,SSE,158,1.0,6.0,98,-99.99,,,0.21,meteohub,2013-02-26 09:32:00,
2013-02-26 04:37:00,26.6,26.1,30.08,SSE,158,5.0,8.0,98,-99.99,,,0.21,meteohub,2013-02-26 09:37:00,
2013-02-26 04:42:00,27.0,26.4,30.08,SSE,158,5.0,8.0,98,-99.99,,,0.21,meteohub,2013-02-26 09:42:00,
2013-02-26 04:47:00,27.3,26.8,30.07,SSE,158,4.0,6.0,98,-99.99,,,0.21,meteohub,2013-02-26 09:47:00,
2013-02-26 04:52:00,27.5,27.0,30.07,SSE,158,4.0,9.0,98,-99.99,,,0.21,meteohub,2013-02-26 09:52:00,
2013-02-26 04:57:00,27.9,27.3,30.07,SSE,158,3.0,9.0,98,-99.99,,,0.21,meteohub,2013-02-26 09:57:00,
2013-02-26 05:02:00,28.2,27.7,30.06,SSE,158,0.0,7.0,98,-99.99,,,0.21,meteohub,2013-02-26 10:02:00,
2013-02-26 05:07:00,28.4,27.9,30.06,SSE,158,3.0,7.0,98,-99.99,,,0.21,meteohub,2013-02-26 10:07:00,
2013-02-26 05:12:00,28.8,28.2,30.06,SSE,158,3.0,4.0,98,-99.99,,,0.21,meteohub,2013-02-26 10:12:00,
2013-02-26 05:17:00,29.3,28.8,30.06,SSE,158,4.0,4.0,98,-99.99,,,0.21,meteohub,2013-02-26 10:17:00,
2013-02-26 05:22:00,29.5,28.9,30.05,SSE,158,2.0,5.0,98,-99.99,,,0.21,meteohub,2013-02-26 10:22:00,
2013-02-26 05:27:00,30.0,29.5,30.05,SSE,158,2.0,5.0,98,-99.99,,,0.21,meteohub,2013-02-26 10:27:00,
2013-02-26 05:32:00,30.4,29.8,30.05,SSE,158,4.0,5.0,98,-99.99,,,0.21,meteohub,2013-02-26 10:32:00,
2013-02-26 05:37:00,30.4,29.8,30.05,SSE,158,8.0,8.0,98,-99.99,,,0.21,meteohub,2013-02-26 10:37:00,
2013-02-26 05:42:00,30.4,29.8,30.05,SSE,158,6.0,8.0,98,-99.99,,,0.21,meteohub,2013-02-26 10:42:00,
2013-02-26 05:47:00,30.2,29.7,30.05,SSE,158,5.0,8.0,98,-99.99,,,0.21,meteohub,2013-02-26 10:47:00,
2013-02-26 05:52:00,29.7,29.1,30.05,SSE,158,6.0,8.0,98,-99.99,,,0.21,meteohub,2013-02-26 10:52:00,
2013-02-26 05:57:00,29.3,28.8,30.06,SSE,158,6.0,8.0,98,-99.99,,,0.21,meteohub,2013-02-26 10:57:00,
2013-02-26 06:02:00,29.5,28.9,30.02,SSE,158,6.0,8.0,98,-99.99,,,0.21,meteohub,2013-02-26 11:02:00,
2013-02-26 06:07:00,29.5,28.9,30.02,SSE,158,4.0,7.0,98,-99.99,,,0.21,meteohub,2013-02-26 11:07:00,
2013-02-26 06:12:00,29.8,29.3,30.02,SSE,158,1.0,7.0,98,-99.99,,,0.21,meteohub,2013-02-26 11:12:00,
2013-02-26 06:17:00,30.0,29.5,30.01,SSE,158,3.0,7.0,98,-99.99,,,0.21,meteohub,2013-02-26 11:17:00,
2013-02-26 06:22:00,30.2,29.7,30.01,SSE,158,2.0,7.0,98,-99.99,,,0.21,meteohub,2013-02-26 11:22:00,
2013-02-26 06:27:00,30.6,30.0,30.01,SSE,158,3.0,7.0,98,-99.99,,,0.21,meteohub,2013-02-26 11:27:00,
2013-02-26 06:32:00,30.7,30.2,30.01,SSE,158,4.0,7.0,98,-99.99,,,0.21,meteohub,2013-02-26 11:32:00,
2013-02-26 06:37:00,30.9,30.4,30.01,SSE,158,3.0,7.0,98,-99.99,,,0.21,meteohub,2013-02-26 11:37:00,
2013-02-26 06:42:00,30.9,30.4,30.01,SSE,158,6.0,6.0,98,-99.99,,,0.21,meteohub,2013-02-26 11:42:00,
2013-02-26 06:47:00,31.1,30.6,30.01,SSE,158,6.0,7.0,98,-99.99,,,0.21,meteohub,2013-02-26 11:47:00,
2013-02-26 06:52:00,31.1,30.6,30.01,SSE,158,6.0,8.0,98,-99.99,,,0.21,meteohub,2013-02-26 11:52:00,
2013-02-26 06:57:00,31.3,30.7,30.01,SSE,158,5.0,10.0,98,-99.99,,,0.21,meteohub,2013-02-26 11:57:00,
2013-02-26 07:02:00,31.1,30.6,29.97,SSE,158,5.0,10.0,98,-99.99,,,0.21,meteohub,2013-02-26 12:02:00,
2013-02-26 07:07:00,31.1,30.6,29.97,SSE,158,5.0,10.0,98,-99.99,,,0.21,meteohub,2013-02-26 12:07:00,
2013-02-26 07:12:00,31.1,30.6,29.97,SSE,158,7.0,8.0,98,-99.99,,,0.21,meteohub,2013-02-26 12:12:00,
2013-02-26 07:17:00,31.1,30.6,30.01,SSE,158,6.0,8.0,98,-99.99,,,0.21,meteohub,2013-02-26 12:17:00,
2013-02-26 07:22:00,30.9,30.4,30.01,SSE,158,4.0,8.0,98,-99.99,,,0.21,meteohub,2013-02-26 12:22:00,
2013-02-26 07:27:00,30.9,30.4,30.01,SSE,158,0.0,8.0,98,-99.99,,,0.21,meteohub,2013-02-26 12:27:00,
2013-02-26 07:32:00,30.9,30.4,29.97,SSE,158,0.0,8.0,98,-99.99,,,0.21,meteohub,2013-02-26 12:32:00,
2013-02-26 07:37:00,31.1,30.6,29.97,SSE,158,0.0,6.0,98,-99.99,,,0.21,meteohub,2013-02-26 12:37:00,
2013-02-26 07:42:00,31.3,30.7,29.97,SSE,158,0.0,0.0,98,-99.99,,,0.21,meteohub,2013-02-26 12:42:00,
2013-02-26 07:47:00,31.3,30.7,29.97,SSE,158,0.0,0.0,98,-99.99,,,0.21,meteohub,2013-02-26 12:47:00,
2013-02-26 07:52:00,31.5,30.9,29.97,SSE,158,0.0,0.0,98,-99.99,,,0.21,meteohub,2013-02-26 12:52:00,
2013-02-26 07:57:00,31.5,30.9,29.97,SSE,158,0.0,0.0,98,-99.99,,,0.21,meteohub,2013-02-26 12:57:00,
2013-02-26 08:02:00,31.5,30.9,29.97,SSE,158,0.0,0.0,98,-99.99,,,0.21,meteohub,2013-02-26 13:02:00,
2013-02-26 08:07:00,31.5,30.9,29.97,SSE,158,0.0,0.0,98,-99.99,,,0.21,meteohub,2013-02-26 13:07:00,
2013-02-26 08:12:00,31.5,30.9,29.97,SSE,158,0.0,0.0,98,-99.99,,,0.21,meteohub,2013-02-26 13:12:00,
2013-02-26 08:17:00,31.5,30.9,29.97,SSE,158,0.0,0.0,98,-99.99,,,0.21,meteohub,2013-02-26 13:17:00,
2013-02-26 08:22:00,31.5,30.9,29.97,SSE,158,0.0,0.0,98,-99.99,,,0.21,meteohub,2013-02-26 13:22:00,
2013-02-26 08:27:00,31.5,30.9,29.97,SSE,158,0.0,0.0,98,-99.99,,,0.21,meteohub,2013-02-26 13:27:00,
2013-02-26 08:32:00,31.3,30.7,29.94,SSE,158,0.0,0.0,98,-99.99,,,0.21,meteohub,2013-02-26 13:32:00,
2013-02-26 08:37:00,31.3,30.7,29.94,SSE,158,0.0,0.0,98,-99.99,,,0.21,meteohub,2013-02-26 13:37:00,
2013-02-26 08:42:00,31.5,30.9,29.94,SSE,158,0.0,0.0,98,-99.99,,,0.21,meteohub,2013-02-26 13:42:00,
2013-02-26 08:47:00,31.5,30.9,29.94,SSE,158,0.0,0.0,98,-99.99,,,0.21,meteohub,2013-02-26 13:47:00,
2013-02-26 08:52:00,31.6,31.1,29.94,SSE,158,0.0,0.0,98,-99.99,,,0.21,meteohub,2013-02-26 13:52:00,
2013-02-26 08:57:00,31.5,30.9,29.94,SSE,158,0.0,0.0,98,-99.99,,,0.21,meteohub,2013-02-26 13:57:00,
2013-02-26 09:02:00,31.6,31.1,29.94,SSE,158,0.0,0.0,98,-99.99,,,0.21,meteohub,2013-02-26 14:02:00,
2013-02-26 09:07:00,31.6,31.1,29.94,SSE,158,0.0,0.0,98,-99.99,,,0.21,meteohub,2013-02-26 14:07:00,
2013-02-26 09:12:00,31.8,31.3,29.93,SSE,158,0.0,0.0,98,-99.99,,,0.21,meteohub,2013-02-26 14:12:00,
2013-02-26 09:17:00,32.0,31.5,29.93,SSE,158,0.0,0.0,98,-99.99,,,0.21,meteohub,2013-02-26 14:17:00,
2013-02-26 09:22:00,32.2,31.6,29.93,SSE,158,0.0,0.0,98,-99.99,,,0.21,meteohub,2013-02-26 14:22:00,
2013-02-26 09:27:00,32.2,31.6,29.93,SSE,158,0.0,0.0,98,-99.99,,,0.21,meteohub,2013-02-26 14:27:00,
2013-02-26 09:32:00,32.4,31.8,29.89,SSE,158,0.0,0.0,98,-99.99,,,0.21,meteohub,2013-02-26 14:32:00,
2013-02-26 09:37:00,32.5,32.0,29.89,SSE,158,0.0,0.0,98,-99.99,,,0.21,meteohub,2013-02-26 14:37:00,
2013-02-26 09:42:00,32.5,32.0,29.89,SSE,158,0.0,0.0,98,-99.99,,,0.21,meteohub,2013-02-26 14:42:00,
2013-02-26 09:47:00,32.5,32.0,29.89,SSE,158,0.0,0.0,98,-99.99,,,0.21,meteohub,2013-02-26 14:47:00,
2013-02-26 09:52:00,32.5,32.0,29.89,SSE,158,0.0,0.0,98,-99.99,,,0.21,meteohub,2013-02-26 14:52:00,
2013-02-26 09:57:00,32.4,31.8,29.89,SSE,158,0.0,0.0,98,-99.99,,,0.21,meteohub,2013-02-26 14:57:00,
2013-02-26 10:02:00,32.2,31.6,29.89,SSE,158,0.0,0.0,98,-99.99,,,0.21,meteohub,2013-02-26 15:02:00,
2013-02-26 10:07:00,32.2,31.6,29.89,SSE,158,0.0,0.0,98,-99.99,,,0.21,meteohub,2013-02-26 15:07:00,
2013-02-26 10:12:00,32.2,31.6,29.89,SSE,158,0.0,0.0,98,-99.99,,,0.21,meteohub,2013-02-26 15:12:00,
2013-02-26 10:17:00,32.4,31.8,29.89,SSE,158,0.0,0.0,98,-99.99,,,0.21,meteohub,2013-02-26 15:17:00,
2013-02-26 10:22:00,32.4,31.8,29.89,SSE,158,0.0,0.0,98,-99.99,,,0.21,meteohub,2013-02-26 15:22:00,
2013-02-26 10:27:00,32.5,32.0,29.89,SSE,158,0.0,0.0,98,-99.99,,,0.21,meteohub,2013-02-26 15:27:00,
2013-02-26 10:32:00,32.5,32.0,29.89,SSE,158,0.0,0.0,98,-99.99,,,0.21,meteohub,2013-02-26 15:32:00,
2013-02-26 10:37:00,32.5,32.0,29.89,SSE,158,0.0,0.0,98,-99.99,,,0.21,meteohub,2013-02-26 15:37:00,
2013-02-26 10:42:00,32.5,32.0,29.89,SSE,158,0.0,0.0,98,-99.99,,,0.21,meteohub,2013-02-26 15:42:00,
2013-02-26 10:47:00,32.7,32.2,29.86,SSE,158,0.0,0.0,98,-99.99,,,0.21,meteohub,2013-02-26 15:47:00,
2013-02-26 10:52:00,32.5,32.0,29.86,SSE,158,0.0,0.0,98,-99.99,,,0.21,meteohub,2013-02-26 15:52:00,
2013-02-26 10:57:00,32.5,32.0,29.86,SSE,158,0.0,0.0,98,-99.99,,,0.21,meteohub,2013-02-26 15:57:00,
2013-02-26 11:02:00,32.4,31.8,29.86,SSE,158,0.0,0.0,98,-99.99,,,0.21,meteohub,2013-02-26 16:02:00,
2013-02-26 11:07:00,32.4,31.8,29.86,SSE,158,0.0,0.0,98,-99.99,,,0.21,meteohub,2013-02-26 16:07:00,
2013-02-26 11:12:00,32.2,31.6,29.86,SSE,158,0.0,0.0,98,-99.99,,,0.21,meteohub,2013-02-26 16:12:00,
2013-02-26 11:17:00,32.0,31.5,29.86,SSE,158,0.0,0.0,98,-99.99,,,0.21,meteohub,2013-02-26 16:17:00,
2013-02-26 11:22:00,32.0,31.5,29.86,SSE,158,0.0,0.0,98,-99.99,,,0.21,meteohub,2013-02-26 16:22:00,
2013-02-26 11:27:00,31.8,31.3,29.86,SSE,158,0.0,0.0,98,-99.99,,,0.21,meteohub,2013-02-26 16:27:00,
2013-02-26 11:32:00,31.8,31.3,29.86,SSE,158,0.0,0.0,98,-99.99,,,0.21,meteohub,2013-02-26 16:32:00,
2013-02-26 11:37:00,31.8,31.3,29.86,SSE,158,0.0,0.0,98,-99.99,,,0.21,meteohub,2013-02-26 16:37:00,
2013-02-26 11:42:00,31.8,31.3,29.86,SSE,158,0.0,0.0,98,-99.99,,,0.21,meteohub,2013-02-26 16:42:00,
2013-02-26 11:47:00,32.2,31.6,29.83,SSE,158,0.0,0.0,98,-99.99,,,0.21,meteohub,2013-02-26 16:47:00,
2013-02-26 11:53:00,32.2,31.6,29.83,SSE,158,0.0,0.0,98,-99.99,,,0.21,meteohub,2013-02-26 16:53:00,
2013-02-26 11:58:00,32.4,31.8,29.83,SSE,158,0.0,0.0,98,-99.99,,,0.21,meteohub,2013-02-26 16:58:00,
2013-02-26 12:03:00,32.5,32.0,29.82,SSE,158,0.0,0.0,98,-99.99,,,0.21,meteohub,2013-02-26 17:03:00,
2013-02-26 12:08:00,32.5,32.0,29.82,SSE,158,0.0,0.0,98,-99.99,,,0.21,meteohub,2013-02-26 17:08:00,
2013-02-26 12:13:00,32.5,32.0,29.82,SSE,158,0.0,0.0,98,-99.99,,,0.21,meteohub,2013-02-26 17:13:00,
2013-02-26 12:18:00,32.5,32.0,29.79,SSE,158,0.0,0.0,98,-99.99,,,0.21,meteohub,2013-02-26 17:18:00,
2013-02-26 12:23:00,32.5,32.0,29.79,SSE,158,0.0,0.0,98,-99.99,,,0.21,meteohub,2013-02-26 17:23:00,
2013-02-26 12:28:00,32.5,32.0,29.79,SSE,158,0.0,0.0,98,-99.99,,,0.21,meteohub,2013-02-26 17:28:00,
2013-02-26 12:33:00,32.5,32.0,29.79,SSE,158,0.0,0.0,98,-99.99,,,0.21,meteohub,2013-02-26 17:33:00,
2013-02-26 12:38:00,32.5,32.0,29.79,SSE,158,0.0,0.0,98,-99.99,,,0.21,meteohub,2013-02-26 17:38:00,
2013-02-26 12:43:00,32.5,32.0,29.79,SSE,158,0.0,0.0,98,-99.99,,,0.21,meteohub,2013-02-26 17:43:00,
2013-02-26 12:48:00,32.5,32.0,29.79,SSE,158,0.0,0.0,98,-99.99,,,0.21,meteohub,2013-02-26 17:48:00,
2013-02-26 12:53:00,32.5,32.0,29.79,SSE,158,0.0,0.0,98,-99.99,,,0.21,meteohub,2013-02-26 17:53:00,
2013-02-26 12:58:00,32.5,32.0,29.79,SSE,158,0.0,0.0,98,-99.99,,,0.21,meteohub,2013-02-26 17:58:00,
2013-02-26 13:03:00,32.5,32.0,29.75,SSE,158,0.0,0.0,98,-99.99,,,0.21,meteohub,2013-02-26 18:03:00,
2013-02-26 13:08:00,32.5,32.0,29.75,SSE,158,0.0,0.0,98,-99.99,,,0.21,meteohub,2013-02-26 18:08:00,
2013-02-26 13:13:00,32.5,32.0,29.75,SSE,158,0.0,0.0,98,-99.99,,,0.21,meteohub,2013-02-26 18:13:00,
2013-02-26 13:18:00,32.5,32.0,29.75,SSE,158,0.0,0.0,98,-99.99,,,0.21,meteohub,2013-02-26 18:18:00,
2013-02-26 13:23:00,32.5,32.0,29.75,SSE,158,0.0,0.0,98,-99.99,,,0.21,meteohub,2013-02-26 18:23:00,
2013-02-26 13:28:00,32.5,32.0,29.75,SSE,158,0.0,0.0,98,-99.99,,,0.21,meteohub,2013-02-26 18:28:00,
2013-02-26 13:33:00,32.5,32.0,29.75,SSE,158,0.0,0.0,98,-99.99,,,0.21,meteohub,2013-02-26 18:33:00,
2013-02-26 13:38:00,32.5,32.0,29.75,SSE,158,0.0,0.0,98,-99.99,,,0.21,meteohub,2013-02-26 18:38:00,
2013-02-26 13:43:00,32.5,32.0,29.75,SSE,158,0.0,0.0,98,-99.99,,,0.21,meteohub,2013-02-26 18:43:00,
2013-02-26 13:48:00,32.7,32.2,29.75,SSE,158,0.0,0.0,98,-99.99,,,0.21,meteohub,2013-02-26 18:48:00,
2013-02-26 13:53:00,32.7,32.2,29.75,SSE,158,0.0,0.0,98,-99.99,,,0.21,meteohub,2013-02-26 18:53:00,
2013-02-26 13:58:00,32.7,32.2,29.75,SSE,158,0.0,0.0,98,-99.99,,,0.21,meteohub,2013-02-26 18:58:00,
2013-02-26 14:03:00,32.9,32.4,29.72,SSE,158,0.0,0.0,98,-99.99,,,0.21,meteohub,2013-02-26 19:03:00,
2013-02-26 14:08:00,32.9,32.4,29.72,SSE,158,0.0,0.0,98,-99.99,,,0.21,meteohub,2013-02-26 19:08:00,
2013-02-26 14:13:00,32.9,32.4,29.72,SSE,158,0.0,0.0,98,-99.99,,,0.21,meteohub,2013-02-26 19:13:00,
2013-02-26 14:19:00,32.7,32.2,29.72,SSE,158,0.0,0.0,98,-99.99,,,0.21,meteohub,2013-02-26 19:19:00,
2013-02-26 14:24:00,32.7,32.2,29.72,SSE,158,0.0,0.0,98,-99.99,,,0.21,meteohub,2013-02-26 19:24:00,
2013-02-26 14:29:00,32.7,32.2,29.72,SSE,158,0.0,0.0,98,-99.99,,,0.21,meteohub,2013-02-26 19:29:00,
2013-02-26 14:34:00,32.7,32.2,29.72,SSE,158,0.0,0.0,98,-99.99,,,0.21,meteohub,2013-02-26 19:34:00,
2013-02-26 14:39:00,32.9,32.4,29.72,SSE,158,0.0,0.0,98,-99.99,,,0.21,meteohub,2013-02-26 19:39:00,
2013-02-26 14:44:00,32.9,32.4,29.72,SSE,158,0.0,0.0,98,-99.99,,,0.21,meteohub,2013-02-26 19:44:00,
2013-02-26 14:49:00,33.1,32.5,29.72,SSE,158,0.0,0.0,98,-99.99,,,0.21,meteohub,2013-02-26 19:49:00,
2013-02-26 14:54:00,33.1,32.5,29.72,SSE,158,0.0,0.0,98,-99.99,,,0.21,meteohub,2013-02-26 19:54:00,
2013-02-26 14:59:00,33.1,32.5,29.72,SSE,158,0.0,0.0,98,-99.99,,,0.21,meteohub,2013-02-26 19:59:00,
2013-02-26 15:04:00,33.1,32.5,29.72,SSE,158,0.0,0.0,98,-99.99,,,0.21,meteohub,2013-02-26 20:04:00,
2013-02-26 15:09:00,33.1,32.5,29.72,SSE,158,0.0,0.0,98,-99.99,,,0.21,meteohub,2013-02-26 20:09:00,
2013-02-26 15:14:00,33.1,32.5,29.68,SSE,158,0.0,0.0,98,-99.99,,,0.21,meteohub,2013-02-26 20:14:00,
2013-02-26 15:19:00,33.1,32.5,29.68,SSE,158,0.0,0.0,98,-99.99,,,0.21,meteohub,2013-02-26 20:19:00,
2013-02-26 15:24:00,33.3,32.7,29.68,SSE,158,0.0,0.0,98,-99.99,,,0.21,meteohub,2013-02-26 20:24:00,
2013-02-26 15:29:00,33.3,32.7,29.68,SSE,158,0.0,0.0,98,-99.99,,,0.21,meteohub,2013-02-26 20:29:00,
2013-02-26 15:34:00,33.3,32.7,29.68,SSE,158,0.0,0.0,98,-99.99,,,0.21,meteohub,2013-02-26 20:34:00,
2013-02-26 15:39:00,33.3,32.7,29.68,SSE,158,0.0,0.0,98,-99.99,,,0.21,meteohub,2013-02-26 20:39:00,
2013-02-26 15:44:00,33.3,32.7,29.68,SSE,158,0.0,0.0,98,-99.99,,,0.21,meteohub,2013-02-26 20:44:00,
2013-02-26 15:49:00,33.3,32.7,29.68,SSE,158,0.0,0.0,98,-99.99,,,0.21,meteohub,2013-02-26 20:49:00,
2013-02-26 15:54:00,33.3,32.7,29.68,SSE,158,0.0,0.0,98,-99.99,,,0.21,meteohub,2013-02-26 20:54:00,
2013-02-26 15:59:00,33.3,32.7,29.68,SSE,158,0.0,0.0,98,-99.99,,,0.21,meteohub,2013-02-26 20:59:00,
2013-02-26 16:04:00,33.3,32.7,29.68,SSE,158,0.0,0.0,98,-99.99,,,0.21,meteohub,2013-02-26 21:04:00,
2013-02-26 16:09:00,33.3,32.7,29.68,SSE,158,0.0,0.0,98,-99.99,,,0.21,meteohub,2013-02-26 21:09:00,
2013-02-26 16:14:00,33.3,32.7,29.68,SSE,158,0.0,0.0,98,-99.99,,,0.21,meteohub,2013-02-26 21:14:00,
2013-02-26 16:19:00,33.3,32.7,29.68,SSE,158,0.0,0.0,98,-99.99,,,0.21,meteohub,2013-02-26 21:19:00,
2013-02-26 16:24:00,33.4,32.9,29.68,SSE,158,0.0,0.0,98,-99.99,,,0.21,meteohub,2013-02-26 21:24:00,
2013-02-26 16:29:00,33.4,32.9,29.68,SSE,158,0.0,0.0,98,-99.99,,,0.21,meteohub,2013-02-26 21:29:00,
2013-02-26 16:34:00,33.4,32.9,29.68,SSE,158,0.0,0.0,98,-99.99,,,0.21,meteohub,2013-02-26 21:34:00,
2013-02-26 16:39:00,33.6,33.1,29.68,SSE,158,0.0,0.0,98,-99.99,,,0.21,meteohub,2013-02-26 21:39:00,
2013-02-26 16:44:00,33.6,33.1,29.64,SSE,158,0.0,0.0,98,-99.99,,,0.21,meteohub,2013-02-26 21:44:00,
2013-02-26 16:50:00,33.6,33.1,29.64,SSE,158,0.0,0.0,98,-99.99,,,0.21,meteohub,2013-02-26 21:50:00,
2013-02-26 16:55:00,33.6,33.1,29.64,SSE,158,0.0,0.0,98,-99.99,,,0.21,meteohub,2013-02-26 21:55:00,
2013-02-26 17:00:00,33.6,33.1,29.64,SSE,158,0.0,0.0,98,-99.99,,,0.21,meteohub,2013-02-26 22:00:00,
2013-02-26 17:05:00,33.6,33.1,29.64,SSE,158,0.0,0.0,98,-99.99,,,0.21,meteohub,2013-02-26 22:05:00,
2013-02-26 17:10:00,33.6,33.1,29.64,SSE,158,0.0,0.0,98,-99.99,,,0.21,meteohub,2013-02-26 22:10:00,
2013-02-26 17:15:00,33.6,33.1,29.64,SSE,158,0.0,0.0,98,-99.99,,,0.21,meteohub,2013-02-26 22:15:00,
2013-02-26 17:20:00,33.6,33.1,29.64,SSE,158,0.0,0.0,98,-99.99,,,0.21,meteohub,2013-02-26 22:20:00,
2013-02-26 17:25:00,33.4,32.9,29.65,SSE,158,0.0,0.0,98,-99.99,,,0.21,meteohub,2013-02-26 22:25:00,
2013-02-26 17:30:00,33.4,32.9,29.65,SSE,158,0.0,0.0,98,-99.99,,,0.21,meteohub,2013-02-26 22:30:00,
2013-02-26 17:35:00,33.4,32.9,29.65,SSE,158,0.0,0.0,98,-99.99,,,0.21,meteohub,2013-02-26 22:35:00,
2013-02-26 17:40:00,33.3,32.7,29.65,SSE,158,0.0,0.0,98,-99.99,,,0.21,meteohub,2013-02-26 22:40:00,
2013-02-26 17:45:00,33.3,32.7,29.65,SSE,158,0.0,0.0,98,-99.99,,,0.21,meteohub,2013-02-26 22:45:00,
2013-02-26 17:50:00,33.3,32.7,29.65,SSE,158,0.0,0.0,98,-99.99,,,0.21,meteohub,2013-02-26 22:50:00,
2013-02-26 17:55:00,33.4,32.9,29.65,SSE,158,0.0,0.0,98,-99.99,,,0.21,meteohub,2013-02-26 22:55:00,
2013-02-26 18:00:00,33.4,32.9,29.65,SSE,158,0.0,0.0,98,-99.99,,,0.21,meteohub,2013-02-26 23:00:00,
2013-02-26 18:05:00,33.4,32.9,29.65,SSE,158,0.0,0.0,98,-99.99,,,0.21,meteohub,2013-02-26 23:05:00,
2013-02-26 18:10:00,33.4,32.9,29.65,SSE,158,0.0,0.0,98,-99.99,,,0.21,meteohub,2013-02-26 23:10:00,
2013-02-26 18:15:00,33.4,32.9,29.68,SSE,158,0.0,0.0,98,-99.99,,,0.21,meteohub,2013-02-26 23:15:00,
2013-02-26 18:20:00,33.4,32.9,29.68,SSE,158,0.0,0.0,98,-99.99,,,0.21,meteohub,2013-02-26 23:20:00,
2013-02-26 18:25:00,33.4,32.9,29.68,SSE,158,0.0,0.0,98,-99.99,,,0.21,meteohub,2013-02-26 23:25:00,
2013-02-26 18:30:00,33.4,32.9,29.68,SSE,158,0.0,0.0,98,-99.99,,,0.21,meteohub,2013-02-26 23:30:00,
2013-02-26 18:35:00,33.3,32.7,29.68,SSE,158,0.0,0.0,98,-99.99,,,0.21,meteohub,2013-02-26 23:35:00,
2013-02-26 18:40:00,33.3,32.7,29.68,SSE,158,0.0,0.0,98,-99.99,,,0.21,meteohub,2013-02-26 23:40:00,
2013-02-26 18:45:00,33.3,32.7,29.68,SSE,158,0.0,0.0,98,-99.99,,,0.21,meteohub,2013-02-26 23:45:00,
2013-02-26 18:50:00,33.3,32.7,29.68,SSE,158,0.0,0.0,98,-99.99,,,0.21,meteohub,2013-02-26 23:50:00,
2013-02-26 18:55:00,33.3,32.7,29.68,SSE,158,0.0,0.0,98,-99.99,,,0.21,meteohub,2013-02-26 23:55:00,
2013-02-26 19:01:00,33.6,33.1,29.68,SSE,158,0.0,0.0,98,-99.99,,,0.21,meteohub,2013-02-27 00:01:00,
2013-02-26 19:06:00,33.6,33.1,29.68,SSE,158,0.0,0.0,98,-99.99,,,0.21,meteohub,2013-02-27 00:06:00,
2013-02-26 19:11:00,33.6,33.1,29.68,SSE,158,0.0,0.0,98,-99.99,,,0.21,meteohub,2013-02-27 00:11:00,
2013-02-26 19:16:00,33.6,33.1,29.68,SSE,158,0.0,0.0,98,-99.99,,,0.21,meteohub,2013-02-27 00:16:00,
2013-02-26 19:21:00,33.4,32.9,29.68,SSE,158,0.0,0.0,98,-99.99,,,0.21,meteohub,2013-02-27 00:21:00,
2013-02-26 19:26:00,33.3,32.7,29.68,SSE,158,0.0,0.0,98,-99.99,,,0.21,meteohub,2013-02-27 00:26:00,
2013-02-26 19:31:00,33.3,32.7,29.68,SSE,158,0.0,0.0,98,-99.99,,,0.21,meteohub,2013-02-27 00:31:00,
2013-02-26 19:36:00,33.6,33.1,29.68,SSE,158,0.0,0.0,98,-99.99,,,0.21,meteohub,2013-02-27 00:36:00,
2013-02-26 19:41:00,33.6,33.1,29.68,SSE,158,0.0,0.0,98,-99.99,,,0.21,meteohub,2013-02-27 00:41:00,
2013-02-26 19:46:00,33.6,33.1,29.68,SSE,158,0.0,0.0,98,-99.99,,,0.21,meteohub,2013-02-27 00:46:00,
2013-02-26 19:51:00,33.6,33.1,29.68,SSE,158,0.0,0.0,98,-99.99,,,0.21,meteohub,2013-02-27 00:51:00,
2013-02-26 19:56:00,33.6,33.1,29.68,SSE,158,0.0,0.0,98,-99.99,,,0.21,meteohub,2013-02-27 00:56:00,
2013-02-26 20:01:00,33.6,33.1,29.68,SSE,158,0.0,0.0,98,-99.99,,,0.21,meteohub,2013-02-27 01:01:00,
2013-02-26 20:06:00,33.6,33.1,29.68,SSE,158,0.0,0.0,98,-99.99,,,0.21,meteohub,2013-02-27 01:06:00,
2013-02-26 20:11:00,33.3,32.7,29.68,SSE,158,0.0,0.0,98,-99.99,,,0.21,meteohub,2013-02-27 01:11:00,
2013-02-26 20:16:00,33.3,32.7,29.68,SSE,158,0.0,0.0,98,-99.99,,,0.21,meteohub,2013-02-27 01:16:00,
2013-02-26 20:21:00,33.3,32.7,29.68,SSE,158,0.0,0.0,98,-99.99,,,0.21,meteohub,2013-02-27 01:21:00,
2013-02-26 20:26:00,33.3,32.7,29.68,SSE,158,0.0,0.0,98,-99.99,,,0.21,meteohub,2013-02-27 01:26:00,
2013-02-26 20:31:00,33.1,32.5,29.68,SSE,158,0.0,0.0,98,-99.99,,,0.21,meteohub,2013-02-27 01:31:00,
2013-02-26 20:36:00,33.1,32.5,29.68,SSE,158,0.0,0.0,98,-99.99,,,0.21,meteohub,2013-02-27 01:36:00,
2013-02-26 20:41:00,32.9,32.4,29.68,SSE,158,0.0,0.0,98,-99.99,,,0.21,meteohub,2013-02-27 01:41:00,
2013-02-26 20:46:00,32.9,32.4,29.68,SSE,158,0.0,0.0,98,-99.99,,,0.21,meteohub,2013-02-27 01:46:00,
2013-02-26 20:51:00,32.9,32.4,29.68,SSE,158,0.0,0.0,98,-99.99,,,0.21,meteohub,2013-02-27 01:51:00,
2013-02-26 20:56:00,33.1,32.5,29.68,SSE,158,0.0,0.0,98,-99.99,,,0.21,meteohub,2013-02-27 01:56:00,
2013-02-26 21:01:00,33.6,33.1,29.68,SSE,158,0.0,0.0,98,-99.99,,,0.21,meteohub,2013-02-27 02:01:00,
2013-02-26 21:06:00,34.0,33.4,29.68,SSE,158,0.0,0.0,98,-99.99,,,0.21,meteohub,2013-02-27 02:06:00,
2013-02-26 21:11:00,34.0,33.4,29.68,SSE,158,0.0,0.0,98,-99.99,,,0.21,meteohub,2013-02-27 02:11:00,
2013-02-26 21:16:00,34.3,33.8,29.70,SSE,158,0.0,0.0,98,-99.99,,,0.21,meteohub,2013-02-27 02:16:00,
2013-02-26 21:21:00,34.3,33.8,29.70,SSE,158,0.0,0.0,98,-99.99,,,0.21,meteohub,2013-02-27 02:21:00,
2013-02-26 21:27:00,34.7,34.2,29.70,SSE,158,0.0,0.0,98,-99.99,,,0.21,meteohub,2013-02-27 02:27:00,
2013-02-26 21:32:00,34.5,34.0,29.70,SSE,158,0.0,0.0,98,-99.99,,,0.21,meteohub,2013-02-27 02:32:00,
2013-02-26 21:37:00,34.2,33.6,29.71,SSE,158,0.0,0.0,98,-99.99,,,0.21,meteohub,2013-02-27 02:37:00,
2013-02-26 21:42:00,34.0,33.4,29.71,SSE,158,0.0,0.0,98,-99.99,,,0.21,meteohub,2013-02-27 02:42:00,
2013-02-26 21:47:00,34.0,33.4,29.71,SSE,158,0.0,0.0,98,-99.99,,,0.21,meteohub,2013-02-27 02:47:00,
2013-02-26 21:52:00,34.2,33.6,29.71,SSE,158,0.0,0.0,98,-99.99,,,0.21,meteohub,2013-02-27 02:52:00,
2013-02-26 21:57:00,34.0,33.4,29.71,SSE,158,0.0,0.0,98,-99.99,,,0.21,meteohub,2013-02-27 02:57:00,
2013-02-26 22:02:00,34.2,33.6,29.71,SSE,158,0.0,0.0,98,-99.99,,,0.21,meteohub,2013-02-27 03:02:00,
2013-02-26 22:07:00,34.2,33.6,29.71,SSE,158,0.0,0.0,98,-99.99,,,0.21,meteohub,2013-02-27 03:07:00,
2013-02-26 22:12:00,34.0,33.4,29.71,SSE,158,0.0,0.0,98,-99.99,,,0.21,meteohub,2013-02-27 03:12:00,
2013-02-26 22:17:00,34.0,33.4,29.71,SSE,158,0.0,0.0,98,-99.99,,,0.21,meteohub,2013-02-27 03:17:00,
2013-02-26 22:22:00,34.0,33.4,29.71,SSE,158,0.0,0.0,98,-99.99,,,0.21,meteohub,2013-02-27 03:22:00,
2013-02-26 22:27:00,33.8,33.3,29.71,SSE,158,0.0,0.0,98,-99.99,,,0.21,meteohub,2013-02-27 03:27:00,
2013-02-26 22:32:00,33.8,33.3,29.71,SSE,158,0.0,0.0,98,-99.99,,,0.21,meteohub,2013-02-27 03:32:00,
2013-02-26 22:37:00,33.6,33.1,29.71,SSE,158,0.0,0.0,98,-99.99,,,0.21,meteohub,2013-02-27 03:37:00,
2013-02-26 22:42:00,33.6,33.1,29.71,SSE,158,0.0,0.0,98,-99.99,,,0.21,meteohub,2013-02-27 03:42:00,
2013-02-26 22:47:00,33.6,33.1,29.71,SSE,158,0.0,0.0,98,-99.99,,,0.21,meteohub,2013-02-27 03:47:00,
2013-02-26 22:52:00,33.6,33.1,29.71,SSE,158,0.0,0.0,98,-99.99,,,0.21,meteohub,2013-02-27 03:52:00,
2013-02-26 22:57:00,33.8,33.3,29.71,SSE,158,0.0,0.0,98,-99.99,,,0.21,meteohub,2013-02-27 03:57:00,
2013-02-26 23:02:00,33.8,33.3,29.71,SSE,158,0.0,0.0,98,-99.99,,,0.21,meteohub,2013-02-27 04:02:00,
2013-02-26 23:07:00,33.8,33.3,29.71,SSE,158,0.0,0.0,98,-99.99,,,0.21,meteohub,2013-02-27 04:07:00,
2013-02-26 23:12:00,33.6,33.1,29.71,SSE,158,0.0,0.0,98,-99.99,,,0.21,meteohub,2013-02-27 04:12:00,
2013-02-26 23:17:00,33.8,33.3,29.71,SSE,158,0.0,0.0,98,-99.99,,,0.21,meteohub,2013-02-27 04:17:00,
2013-02-26 23:22:00,33.8,33.3,29.71,SSE,158,0.0,0.0,98,-99.99,,,0.21,meteohub,2013-02-27 04:22:00,
2013-02-26 23:27:00,34.0,33.4,29.71,SSE,158,0.0,0.0,98,-99.99,,,0.21,meteohub,2013-02-27 04:27:00,
2013-02-26 23:32:00,33.8,33.3,29.68,SSE,158,0.0,0.0,98,-99.99,,,0.21,meteohub,2013-02-27 04:32:00,
2013-02-26 23:37:00,33.8,33.3,29.68,SSE,158,0.0,0.0,98,-99.99,,,0.21,meteohub,2013-02-27 04:37:00,
2013-02-26 23:42:00,33.8,33.3,29.68,SSE,158,0.0,0.0,98,-99.99,,,0.21,meteohub,2013-02-27 04:42:00,
2013-02-26 23:47:00,33.8,33.3,29.68,SSE,158,0.0,0.0,98,-99.99,,,0.21,meteohub,2013-02-27 04:47:00,
2013-02-26 23:52:00,33.8,33.3,29.68,SSE,158,0.0,0.0,98,-99.99,,,0.21,meteohub,2013-02-27 04:52:00,
2013-02-26 23:57:00,33.6,33.1,29.68,SSE,158,0.0,0.0,98,-99.99,,,0.21,meteohub,2013-02-27 04:57:00,